Regional Weather Roundup
Issued by NWS

Home | Current Version | Previous Version | Text Only | Print | Product List | Glossary On
Versions: 1 2 3 4 5 6 7 8 9 10 11 12 13 14 15 16 17 18 19 20 21 22 23 24 25 26 27 28 29 30 31 32 33 34 35 36 37 38 39 40 41 42 43 44 45 46 47 48 49 50
000
ASUS43 KLSX 081210
RWRMO

WEATHER SUMMARY FOR MISSOURI
NATIONAL WEATHER SERVICE SPRINGFIELD MO
600 AM CST MON FEB 08 2016

NOTE: "FAIR" INDICATES FEW OR NO CLOUDS BELOW 12,000 FEET WITH NO
       SIGNIFICANT WEATHER AND/OR OBSTRUCTIONS TO VISIBILITY.
       CURRENT SKY AND/OR WEATHER CONDITIONS ARE NOT AVAILABLE FOR
       CHILLICOTHE AND FARMINGTON.

MOZ001>031-035>038-043-044-053-054-081300-
...NORTHERN AND WESTERN MISSOURI...

CITY           SKY/WX    TMP DP  RH WIND       PRES   REMARKS
KANSAS CTY INT CLOUDY    33  19  56 NW29G45   29.97S WCI  19
6HR MIN TEMP:  33; 6HR MAX TEMP:  36; 6HR PCP: TRACE;

KANSAS C DTWN  FLURRIES  34  23  64 NW17G25   29.99R WCI  23
6HR MIN TEMP:  34; 6HR MAX TEMP:  39; 6HR PCP: TRACE;

LEE`S SUMMIT   FLURRIES  34  21  59 NW18G31   29.97R WCI  23
6HR MIN TEMP:  33; 6HR MAX TEMP:  37; 6HR PCP: TRACE;

ST JOSEPH      CLOUDY    31  19  61 NW9       30.00R WCI  23
6HR MIN TEMP:  31; 6HR MAX TEMP:  36; 6HR PCP: TRACE;

CHILLICOTHE      N/A     28  14  55 NW14G29   29.95R WCI  17
6HR MIN TEMP:  28; 6HR MAX TEMP:  36;

KIRKSVILLE     CLOUDY    24  12  60 NW15G29   29.86R WCI  11
6HR MIN TEMP:  24; 6HR MAX TEMP:  34; 6HR PCP:  0.01;


$$
MOZ066>068-077>081-088>096-101>105-081300-
...SOUTHWEST MISSOURI...

CITY           SKY/WX    TMP DP  RH WIND       PRES   REMARKS
SPRINGFIELD    CLOUDY    35  19  52 NW14G23   29.96S WCI  26
6HR MIN TEMP:  33; 6HR MAX TEMP:  39; 6HR PCP: TRACE;

JOPLIN         CLOUDY    35  18  49 NW18G28   30.06R WCI  24
6HR MIN TEMP:  34; 6HR MAX TEMP:  38;


$$
MOZ032>034-039>042-045>050-055>058-069>072-081300-
...CENTRAL MISSOURI...

CITY           SKY/WX    TMP DP  RH WIND       PRES   REMARKS
COLUMBIA       CLOUDY    29  20  69 NW18G29   29.87S WCI  16
6HR MIN TEMP:  29; 6HR MAX TEMP:  37; 6HR PCP:  0.01;

JEFFERSON CITY FLURRIES  30  22  72 NW22G29   29.90S WCI  17
6HR MIN TEMP:  30; 6HR MAX TEMP:  39; 6HR PCP: TRACE;

ROLLA          CLOUDY    29  26  89 NW17G25   29.84R FOG     WCI  17
6HR MIN TEMP:  29; 6HR MAX TEMP:  36; 6HR PCP: TRACE;

SEDALIA        FLURRIES  31  21  66 NW16      29.95R WCI  20
6HR MIN TEMP:  31; 6HR MAX TEMP:  38; 6HR PCP: TRACE;

WHITEMAN AFB   CLOUDY    32  20  63 NW10      29.94S WCI  23
WARRENSBURG    CLOUDY    34  19  55 NW20G33   29.96S WCI  22
OSAGE BEACH    CLOUDY    34  16  47 W16G28    29.92R WCI  23

$$
MOZ051-052-059>065-081300-
...EAST CENTRAL MISSOURI...

CITY           SKY/WX    TMP DP  RH WIND       PRES   REMARKS
ST LOUIS INTL  CLOUDY    35  17  47 W23G31    29.79S WCI  23
6HR MIN TEMP:  35; 6HR MAX TEMP:  41; 6HR PCP: TRACE;

SPIRIT OF STL  CLOUDY    34  17  50 NW20G33   29.80S WCI  23
6HR MIN TEMP:  34; 6HR MAX TEMP:  40; 6HR PCP: TRACE;

ST CHARLES     CLOUDY    33  21  61 W24G32    29.79R WCI  20
6HR MIN TEMP:  33; 6HR MAX TEMP:  39;


$$
MOZ072>076-082>087-097>100-106>115-081300-
...SOUTH CENTRAL AND SOUTHEAST MISSOURI...

CITY           SKY/WX    TMP DP  RH WIND       PRES   REMARKS
CAPE GIRARDEAU CLOUDY    36  28  73 W14       29.82S WCI  27
6HR MIN TEMP:  32; 6HR MAX TEMP:  40;

FARMINGTON     CLOUDY    34  24  67 W14       29.81S WCI  25
6HR MIN TEMP:  34; 6HR MAX TEMP:  41; 6HR PCP: TRACE;

POPLAR BLUFF   PTCLDY    38  23  55 NW8       29.85S
6HR MIN TEMP:  38; 6HR MAX TEMP:  45;

WEST PLAINS    CLOUDY    35  21  56 NW21G39   29.89R WCI  24
6HR MIN TEMP:  35; 6HR MAX TEMP:  41; 6HR PCP: TRACE;


$$



USA.gov is the U.S. government's official web portal to all federal, state and local government web resources and services.